Погода в Судае

Россия / Костромская область     58°58′42″N   43°07′48″E
темп.,
°C
ветер,
м/с
пор.,
м/с
влажн.,
%
обл.,
%
осадки,
мм/ч
давл.,
гПа
погр.,
м
18 мая, вт
вт1800:00+14в3787100 0.0 1017126
03:00+13в2990100 0.1 1018205
06:00+15вюв3118518 0.4 1017324
09:00+22юв476069 0.4 1017641
12:00+25юв565241 0.0 10171164
15:00+27юв464617 0.0 10161610
18:00+24вюв495827 0.0 1016796
21:00+20юв4137886 0.1 1016437
19 мая, ср
ср1900:00+17юв4138832 0.6 1016402
03:00+15юв412895 0.6 1016316
06:00+17юв312805 0.0 1016376
09:00+23юв48561 0.0 1016618
12:00+26юв58445 0.0 10151280
15:00+27юв58415 0.0 10151624
18:00+24юв510490 0.0 1014820
21:00+19юв413650 0.0 1015450
20 мая, чт
чт2000:00+17юв414730 0.0 1015420
03:00+15юв312810 0.0 1014343
06:00+17юв412750 0.0 1014372
09:00+23юв585532 0.0 1013728
12:00+26юв683716 0.0 10121920
15:00+27ююв5938100 0.0 10112288
18:00+25юв510490 0.0 10101652
21:00+19ююв41277100 0.3 1011620
21 мая, пт
пт2100:00+16ююв311895 0.0 1010371
03:00+15юв39955 0.0 1009347
06:00+16ююв41088100 0.0 1009525
09:00+18ююв696695 0.1 10081346
12:00+18ю5970100 1.0 10071549
15:00+19ююз5106543 2.4 10061688
18:00+14ююз6117277 0.9 10071298
21:00+11ююз51080100 0.9 1009844
22 мая, сб
сб2200:00+10юз51393100 0.9 1010697
03:00+11юз51193100 0.9 1012854
06:00+11зюз498990 0.1 1015611
09:00+14зюз611645 0.4 10161480
12:00+18зюз6103697 0.1 10172981
15:00+16з484937 0.1 10181306
18:00+17зюз464532 0.0 10181556
21:00+10зюз226977 0.0 102016